TDRS 12

导读 | 星芒AI

TDRS 12(Tracking and Data Relay Satellite 12)是美国国家航空航天局(NASA)的第三代跟踪与数据中继卫星系统(TDRS)的一部分,由波音公司制造。该卫星于2013年11月21日搭乘“亚特兰蒂斯”号航天飞机(STS-129任务)发射升空,用于增强近地轨道与地球之间的通信能力。TDRS 12 位于地球静止轨道,为国际空间站、航天器和各类科学任务提供高速数据中继服务,大幅提升了数据传输效率和任务协调能力。

基本信息
目录编号:
39504
目录名称:
TDRS 12
国际标识:
2014-004A
轨道中心:
EARTH
卫星名称:
TDRS 12
卫星全名:
--
卫星状态:
在轨 (已飞行4299 天)
发射日期:
2014-01-24 UTC
国别 :
美国 (US)
星等 :
--
轨道信息
数据来源 国际轨道数据 AOE轨道数据
星历时间 2025-11-01T00:00:31+0800
11小时前
查看轨道信息
2025-10-31T12:00:00+0800
23小时前
查看轨道信息
半长轴 42162.906km 42162.822km
偏心率 0.0006853 0.0006975
轨道倾角 3.773° 3.773°
近地点辐角 229.602° 230.998°
升交点赤经 14.828° 14.820°
平近点角 354.854° 172.836°
近地点 35755.876km 35755.278km
远地点 35813.666km 35814.096km
周期 1436.004分钟 1435.999分钟
每日圈数 1.002783 1.002786
详细信息
使用方式:
暂无
2D轨道图
3D轨道图
轨道高度分析图
轨道倾角分析图
轨道综合分析图
查看轨道综合分析图